Year,Month,Day,Hour,Minute,Value (Times are PST for temperature in C)
2010,02,20,00,00,2.80
2010,02,20,00,01,2.80
2010,02,20,00,02,2.70
2010,02,20,00,03,2.70
2010,02,20,00,04,2.70
2010,02,20,00,05,2.70
2010,02,20,00,06,2.70
2010,02,20,00,07,2.70
2010,02,20,00,08,2.70
2010,02,20,00,09,2.60
2010,02,20,00,10,2.60
2010,02,20,00,11,2.60
2010,02,20,00,12,2.60
2010,02,20,00,13,2.60
2010,02,20,00,14,2.50
2010,02,20,00,15,2.50
2010,02,20,00,16,2.50
2010,02,20,00,17,2.50
2010,02,20,00,18,2.60
2010,02,20,00,19,2.60
2010,02,20,00,20,2.60
2010,02,20,00,21,2.50
2010,02,20,00,22,2.50
2010,02,20,00,23,2.50
2010,02,20,00,24,2.50
2010,02,20,00,25,2.40
2010,02,20,00,26,2.40
2010,02,20,00,27,2.40
2010,02,20,00,28,2.40
2010,02,20,00,29,2.40
2010,02,20,00,30,2.40
2010,02,20,00,31,2.50
2010,02,20,00,32,2.50
2010,02,20,00,33,2.50
2010,02,20,00,34,2.50
2010,02,20,00,35,2.60
2010,02,20,00,36,2.60
2010,02,20,00,37,2.60
2010,02,20,00,38,2.60
2010,02,20,00,39,2.60
2010,02,20,00,40,2.60
2010,02,20,00,41,2.60
2010,02,20,00,42,2.50
2010,02,20,00,43,2.50
2010,02,20,00,44,2.50
2010,02,20,00,45,2.50
2010,02,20,00,46,2.50
2010,02,20,00,47,2.50
2010,02,20,00,48,2.40
2010,02,20,00,49,2.40
2010,02,20,00,50,2.40
2010,02,20,00,51,2.40
2010,02,20,00,52,2.30
2010,02,20,00,53,2.30
2010,02,20,00,54,2.30
2010,02,20,00,55,2.30
2010,02,20,00,56,2.30
2010,02,20,00,57,2.20
2010,02,20,00,58,2.20
2010,02,20,00,59,2.20
2010,02,20,01,00,2.30
2010,02,20,01,01,2.30
2010,02,20,01,02,2.30
2010,02,20,01,03,2.20
2010,02,20,01,04,2.20
2010,02,20,01,05,2.20
2010,02,20,01,06,2.20
2010,02,20,01,07,2.20
2010,02,20,01,08,2.20
2010,02,20,01,09,2.20
2010,02,20,01,10,2.20
2010,02,20,01,11,2.10
2010,02,20,01,12,2.10
2010,02,20,01,13,2.10
2010,02,20,01,14,2.00
2010,02,20,01,15,2.00
2010,02,20,01,16,2.00
2010,02,20,01,17,2.10
2010,02,20,01,18,2.10
2010,02,20,01,19,2.10
2010,02,20,01,20,2.10
2010,02,20,01,21,2.10
2010,02,20,01,22,2.20
2010,02,20,01,23,2.20
2010,02,20,01,24,2.20
2010,02,20,01,25,2.20
2010,02,20,01,26,2.20
2010,02,20,01,27,2.20
2010,02,20,01,28,2.20
2010,02,20,01,29,2.20
2010,02,20,01,30,2.20
2010,02,20,01,31,2.20
2010,02,20,01,32,2.20
2010,02,20,01,33,2.20
2010,02,20,01,34,2.20
2010,02,20,01,35,2.20
2010,02,20,01,36,2.20
2010,02,20,01,37,2.20
2010,02,20,01,38,2.20
2010,02,20,01,39,2.10
2010,02,20,01,40,2.10
2010,02,20,01,41,2.10
2010,02,20,01,42,2.10
2010,02,20,01,43,2.10
2010,02,20,01,44,2.20
2010,02,20,01,45,2.20
2010,02,20,01,46,2.20
2010,02,20,01,47,2.20
2010,02,20,01,48,2.20
2010,02,20,01,49,2.20
2010,02,20,01,50,2.20
2010,02,20,01,51,2.20
2010,02,20,01,52,2.20
2010,02,20,01,53,2.20
2010,02,20,01,54,2.20
2010,02,20,01,55,2.20
2010,02,20,01,56,2.20
2010,02,20,01,57,2.20
2010,02,20,01,58,2.10
2010,02,20,01,59,2.10
2010,02,20,02,00,2.10
2010,02,20,02,01,2.10
2010,02,20,02,02,2.10
2010,02,20,02,03,2.00
2010,02,20,02,04,2.00
2010,02,20,02,05,2.00
2010,02,20,02,06,2.00
2010,02,20,02,07,2.00
2010,02,20,02,08,2.00
2010,02,20,02,09,1.90
2010,02,20,02,10,1.90
2010,02,20,02,11,1.80
2010,02,20,02,12,1.80
2010,02,20,02,13,1.80
2010,02,20,02,14,1.80
2010,02,20,02,15,1.80
2010,02,20,02,16,1.80
2010,02,20,02,17,1.80
2010,02,20,02,18,1.80
2010,02,20,02,19,1.80
2010,02,20,02,20,1.80
2010,02,20,02,21,1.80
2010,02,20,02,22,1.80
2010,02,20,02,23,1.80
2010,02,20,02,24,1.70
2010,02,20,02,25,1.70
2010,02,20,02,26,1.60
2010,02,20,02,27,1.60
2010,02,20,02,28,1.60
2010,02,20,02,29,1.60
2010,02,20,02,30,1.60
2010,02,20,02,31,1.60
2010,02,20,02,32,1.60
2010,02,20,02,33,1.60
2010,02,20,02,34,1.60
2010,02,20,02,35,1.70
2010,02,20,02,36,1.70
2010,02,20,02,37,1.70
2010,02,20,02,38,1.60
2010,02,20,02,39,1.60
2010,02,20,02,40,1.60
2010,02,20,02,41,1.60
2010,02,20,02,42,1.60
2010,02,20,02,43,1.70
2010,02,20,02,44,1.70
2010,02,20,02,45,1.70
2010,02,20,02,46,1.60
2010,02,20,02,47,1.60
2010,02,20,02,48,1.60
2010,02,20,02,49,1.60
2010,02,20,02,50,1.60
2010,02,20,02,51,1.60
2010,02,20,02,52,1.60
2010,02,20,02,53,1.60
2010,02,20,02,54,1.70
2010,02,20,02,55,1.70
2010,02,20,02,56,1.70
2010,02,20,02,57,1.70
2010,02,20,02,58,1.70
2010,02,20,02,59,1.70
2010,02,20,03,00,1.70
2010,02,20,03,01,1.60
2010,02,20,03,02,1.60
2010,02,20,03,03,1.60
2010,02,20,03,04,1.60
2010,02,20,03,05,1.60
2010,02,20,03,06,1.60
2010,02,20,03,07,1.60
2010,02,20,03,08,1.60
2010,02,20,03,09,1.60
2010,02,20,03,10,1.60
2010,02,20,03,11,1.60
2010,02,20,03,12,1.60
2010,02,20,03,13,1.60
2010,02,20,03,14,1.60
2010,02,20,03,15,1.60
2010,02,20,03,16,1.60
2010,02,20,03,17,1.60
2010,02,20,03,18,1.60
2010,02,20,03,19,1.70
2010,02,20,03,20,1.80
2010,02,20,03,21,1.80
2010,02,20,03,22,1.80
2010,02,20,03,23,1.80
2010,02,20,03,24,1.80
2010,02,20,03,25,1.80
2010,02,20,03,26,1.80
2010,02,20,03,27,1.70
2010,02,20,03,28,1.60
2010,02,20,03,29,1.60
2010,02,20,03,30,1.50
2010,02,20,03,31,1.50
2010,02,20,03,32,1.50
2010,02,20,03,33,1.50
2010,02,20,03,34,1.40
2010,02,20,03,35,1.40
2010,02,20,03,36,1.40
2010,02,20,03,37,1.40
2010,02,20,03,38,1.40
2010,02,20,03,39,1.40
2010,02,20,03,40,1.30
2010,02,20,03,41,1.30
2010,02,20,03,42,1.30
2010,02,20,03,43,1.30
2010,02,20,03,44,1.30
2010,02,20,03,45,1.30
2010,02,20,03,46,1.30
2010,02,20,03,47,1.40
2010,02,20,03,48,1.40
2010,02,20,03,49,1.40
2010,02,20,03,50,1.40
2010,02,20,03,51,1.30
2010,02,20,03,52,1.30
2010,02,20,03,53,1.30
2010,02,20,03,54,1.30
2010,02,20,03,55,1.30
2010,02,20,03,56,1.30
2010,02,20,03,57,1.40
2010,02,20,03,58,1.40
2010,02,20,03,59,1.50
2010,02,20,04,00,1.50
2010,02,20,04,01,1.50
2010,02,20,04,02,1.60
2010,02,20,04,03,1.60
2010,02,20,04,04,1.60
2010,02,20,04,05,1.60
2010,02,20,04,06,1.60
2010,02,20,04,07,1.60
2010,02,20,04,08,1.60
2010,02,20,04,09,1.60
2010,02,20,04,10,1.60
2010,02,20,04,11,1.70
2010,02,20,04,12,1.60
2010,02,20,04,13,1.60
2010,02,20,04,14,1.60
2010,02,20,04,15,1.60
2010,02,20,04,16,1.60
2010,02,20,04,17,1.50
2010,02,20,04,18,1.50
2010,02,20,04,19,1.50
2010,02,20,04,20,1.40
2010,02,20,04,21,1.40
2010,02,20,04,22,1.40
2010,02,20,04,23,1.40
2010,02,20,04,24,1.30
2010,02,20,04,25,1.30
2010,02,20,04,26,1.40
2010,02,20,04,27,1.40
2010,02,20,04,28,1.40
2010,02,20,04,29,1.50
2010,02,20,04,30,1.50
2010,02,20,04,31,1.50
2010,02,20,04,32,1.50
2010,02,20,04,33,1.50
2010,02,20,04,34,1.50
2010,02,20,04,35,1.50
2010,02,20,04,36,1.50
2010,02,20,04,37,1.50
2010,02,20,04,38,1.50
2010,02,20,04,39,1.50
2010,02,20,04,40,1.50
2010,02,20,04,41,1.50
2010,02,20,04,42,1.50
2010,02,20,04,43,1.50
2010,02,20,04,44,1.40
2010,02,20,04,45,1.40
2010,02,20,04,46,1.40
2010,02,20,04,47,1.30
2010,02,20,04,48,1.30
2010,02,20,04,49,1.30
2010,02,20,04,50,1.30
2010,02,20,04,51,1.30
2010,02,20,04,52,1.30
2010,02,20,04,53,1.30
2010,02,20,04,54,1.30
2010,02,20,04,55,1.30
2010,02,20,04,56,1.30
2010,02,20,04,57,1.30
2010,02,20,04,58,1.30
2010,02,20,04,59,1.30
2010,02,20,05,00,1.30
2010,02,20,05,01,1.20
2010,02,20,05,02,1.20
2010,02,20,05,03,1.20
2010,02,20,05,04,1.10
2010,02,20,05,05,1.10
2010,02,20,05,06,1.00
2010,02,20,05,07,1.00
2010,02,20,05,08,1.00
2010,02,20,05,09,1.00
2010,02,20,05,10,0.90
2010,02,20,05,11,0.90
2010,02,20,05,12,0.90
2010,02,20,05,13,0.90
2010,02,20,05,14,0.90
2010,02,20,05,15,0.90
2010,02,20,05,16,0.90
2010,02,20,05,17,0.90
2010,02,20,05,18,0.90
2010,02,20,05,19,0.90
2010,02,20,05,20,0.80
2010,02,20,05,21,0.80
2010,02,20,05,22,0.80
2010,02,20,05,23,0.80
2010,02,20,05,24,0.80
2010,02,20,05,25,0.80
2010,02,20,05,26,0.80
2010,02,20,05,27,0.80
2010,02,20,05,28,0.80
2010,02,20,05,29,0.80
2010,02,20,05,30,0.80
2010,02,20,05,31,0.80
2010,02,20,05,32,0.80
2010,02,20,05,33,0.80
2010,02,20,05,34,0.80
2010,02,20,05,35,0.80
2010,02,20,05,36,0.80
2010,02,20,05,37,0.80
2010,02,20,05,38,0.80
2010,02,20,05,39,0.80
2010,02,20,05,40,0.80
2010,02,20,05,41,0.80
2010,02,20,05,42,0.80
2010,02,20,05,43,0.80
2010,02,20,05,44,0.80
2010,02,20,05,45,0.80
2010,02,20,05,46,0.90
2010,02,20,05,47,0.90
2010,02,20,05,48,1.00
2010,02,20,05,49,1.00
2010,02,20,05,50,1.00
2010,02,20,05,51,1.00
2010,02,20,05,52,1.00
2010,02,20,05,53,1.00
2010,02,20,05,54,1.00
2010,02,20,05,55,1.00
2010,02,20,05,56,1.00
2010,02,20,05,57,1.00
2010,02,20,05,58,1.00
2010,02,20,05,59,1.00
2010,02,20,06,00,1.00
2010,02,20,06,01,1.00
2010,02,20,06,02,1.00
2010,02,20,06,03,0.90
2010,02,20,06,04,0.90
2010,02,20,06,05,0.90
2010,02,20,06,06,0.90
2010,02,20,06,07,0.90
2010,02,20,06,08,0.90
2010,02,20,06,09,0.90
2010,02,20,06,10,0.90
2010,02,20,06,11,0.90
2010,02,20,06,12,0.90
2010,02,20,06,13,0.80
2010,02,20,06,14,0.80
2010,02,20,06,15,0.80
2010,02,20,06,16,0.80
2010,02,20,06,17,0.80
2010,02,20,06,18,0.80
2010,02,20,06,19,0.80
2010,02,20,06,20,0.80
2010,02,20,06,21,0.80
2010,02,20,06,22,0.80
2010,02,20,06,23,0.80
2010,02,20,06,24,0.70
2010,02,20,06,25,0.70
2010,02,20,06,26,0.70
2010,02,20,06,27,0.70
2010,02,20,06,28,0.60
2010,02,20,06,29,0.60
2010,02,20,06,30,0.50
2010,02,20,06,31,0.50
2010,02,20,06,32,0.50
2010,02,20,06,33,0.50
2010,02,20,06,34,0.50
2010,02,20,06,35,0.50
2010,02,20,06,36,0.50
2010,02,20,06,37,0.50
2010,02,20,06,38,0.50
2010,02,20,06,39,0.50
2010,02,20,06,40,0.60
2010,02,20,06,41,0.60
2010,02,20,06,42,0.60
2010,02,20,06,43,0.60
2010,02,20,06,44,0.60
2010,02,20,06,45,0.60
2010,02,20,06,46,0.60
2010,02,20,06,47,0.60
2010,02,20,06,48,0.60
2010,02,20,06,49,0.60
2010,02,20,06,50,0.60
2010,02,20,06,51,0.60
2010,02,20,06,52,0.60
2010,02,20,06,53,0.70
2010,02,20,06,54,0.70
2010,02,20,06,55,0.70
2010,02,20,06,56,0.60
2010,02,20,06,57,0.60
2010,02,20,06,58,0.70
2010,02,20,06,59,0.70
2010,02,20,07,00,0.70
2010,02,20,07,01,0.70
2010,02,20,07,02,0.70
2010,02,20,07,03,0.70
2010,02,20,07,04,0.70
2010,02,20,07,05,0.70
2010,02,20,07,06,0.70
2010,02,20,07,07,0.70
2010,02,20,07,08,0.70
2010,02,20,07,09,0.70
2010,02,20,07,10,0.80
2010,02,20,07,11,0.80
2010,02,20,07,12,0.80
2010,02,20,07,13,0.80
2010,02,20,07,14,0.80
2010,02,20,07,15,0.80
2010,02,20,07,16,0.80
2010,02,20,07,17,0.80
2010,02,20,07,18,0.80
2010,02,20,07,19,0.80
2010,02,20,07,20,0.80
2010,02,20,07,21,0.80
2010,02,20,07,22,0.80
2010,02,20,07,23,0.80
2010,02,20,07,24,0.80
2010,02,20,07,25,0.80
2010,02,20,07,26,0.80
2010,02,20,07,27,0.80
2010,02,20,07,28,0.80
2010,02,20,07,29,0.80
2010,02,20,07,30,0.70
2010,02,20,07,31,0.70
2010,02,20,07,32,0.60
2010,02,20,07,33,0.60
2010,02,20,07,34,0.50
2010,02,20,07,35,0.40
2010,02,20,07,36,0.40
2010,02,20,07,37,0.30
2010,02,20,07,38,0.20
2010,02,20,07,39,0.20
2010,02,20,07,40,0.20
2010,02,20,07,41,0.20
2010,02,20,07,42,0.20
2010,02,20,07,43,0.20
2010,02,20,07,44,0.20
2010,02,20,07,45,0.20
2010,02,20,07,46,0.30
2010,02,20,07,47,0.30
2010,02,20,07,48,0.30
2010,02,20,07,49,0.40
2010,02,20,07,50,0.40
2010,02,20,07,51,0.40
2010,02,20,07,52,0.40
2010,02,20,07,53,0.40
2010,02,20,07,54,0.40
2010,02,20,07,55,0.40
2010,02,20,07,56,0.40
2010,02,20,07,57,0.40
2010,02,20,07,58,0.40
2010,02,20,07,59,0.40
2010,02,20,08,00,0.40
2010,02,20,08,01,0.30
2010,02,20,08,02,0.30
2010,02,20,08,03,0.30
2010,02,20,08,04,0.40
2010,02,20,08,05,0.40
2010,02,20,08,06,0.40
2010,02,20,08,07,0.40
2010,02,20,08,08,0.50
2010,02,20,08,09,0.50
2010,02,20,08,10,0.60
2010,02,20,08,11,0.60
2010,02,20,08,12,0.70
2010,02,20,08,13,0.70
2010,02,20,08,14,0.80
2010,02,20,08,15,0.90
2010,02,20,08,16,1.00
2010,02,20,08,17,1.00
2010,02,20,08,18,1.10
2010,02,20,08,19,1.20
2010,02,20,08,20,1.30
2010,02,20,08,21,1.40
2010,02,20,08,22,1.50
2010,02,20,08,23,1.70
2010,02,20,08,24,1.80
2010,02,20,08,25,1.90
2010,02,20,08,26,2.00
2010,02,20,08,27,2.10
2010,02,20,08,28,2.20
2010,02,20,08,29,2.30
2010,02,20,08,30,2.50
2010,02,20,08,31,2.60
2010,02,20,08,32,2.70
2010,02,20,08,33,2.70
2010,02,20,08,34,2.80
2010,02,20,08,35,2.80
2010,02,20,08,36,2.90
2010,02,20,08,37,2.90
2010,02,20,08,38,2.90
2010,02,20,08,39,3.10
2010,02,20,08,40,3.10
2010,02,20,08,41,3.20
2010,02,20,08,42,3.30
2010,02,20,08,43,3.40
2010,02,20,08,44,3.50
2010,02,20,08,45,3.60
2010,02,20,08,46,3.80
2010,02,20,08,47,3.90
2010,02,20,08,48,4.00
2010,02,20,08,49,4.10
2010,02,20,08,50,4.20
2010,02,20,08,51,4.30
2010,02,20,08,52,4.30
2010,02,20,08,53,4.30
2010,02,20,08,54,4.30
2010,02,20,08,55,4.30
2010,02,20,08,56,4.30
2010,02,20,08,57,4.30
2010,02,20,08,58,4.40
2010,02,20,08,59,4.50
2010,02,20,09,00,4.60
2010,02,20,09,01,4.60
2010,02,20,09,02,4.60
2010,02,20,09,03,4.60
2010,02,20,09,04,4.60
2010,02,20,09,05,4.60
2010,02,20,09,06,4.60
2010,02,20,09,07,4.60
2010,02,20,09,08,4.60
2010,02,20,09,09,4.60
2010,02,20,09,10,4.60
2010,02,20,09,11,4.70
2010,02,20,09,12,4.70
2010,02,20,09,13,4.70
2010,02,20,09,14,4.80
2010,02,20,09,15,4.80
2010,02,20,09,16,4.90
2010,02,20,09,17,4.90
2010,02,20,09,18,5.00
2010,02,20,09,19,5.10
2010,02,20,09,20,5.10
2010,02,20,09,21,5.10
2010,02,20,09,22,5.30
2010,02,20,09,23,5.30
2010,02,20,09,24,5.50
2010,02,20,09,25,5.70
2010,02,20,09,26,6.00
2010,02,20,09,27,6.10
2010,02,20,09,28,6.20
2010,02,20,09,29,6.20
2010,02,20,09,30,6.20
2010,02,20,09,31,6.30
2010,02,20,09,32,6.30
2010,02,20,09,33,6.30
2010,02,20,09,34,6.40
2010,02,20,09,35,6.40
2010,02,20,09,36,6.50
2010,02,20,09,37,6.60
2010,02,20,09,38,6.80
2010,02,20,09,39,6.80
2010,02,20,09,40,6.90
2010,02,20,09,41,7.00
2010,02,20,09,42,7.10
2010,02,20,09,43,7.20
2010,02,20,09,44,7.30
2010,02,20,09,45,7.30
2010,02,20,09,46,7.30
2010,02,20,09,47,7.30
2010,02,20,09,48,7.30
2010,02,20,09,49,7.30
2010,02,20,09,50,7.30
2010,02,20,09,51,7.40
2010,02,20,09,52,7.50
2010,02,20,09,53,7.50
2010,02,20,09,54,7.60
2010,02,20,09,55,7.70
2010,02,20,09,56,7.80
2010,02,20,09,57,8.00
2010,02,20,09,58,8.30
2010,02,20,09,59,8.40
2010,02,20,10,00,8.60
2010,02,20,10,01,8.70
2010,02,20,10,02,8.90
2010,02,20,10,03,9.00
2010,02,20,10,04,9.10
2010,02,20,10,05,9.20
2010,02,20,10,06,9.30
2010,02,20,10,07,9.40
2010,02,20,10,08,9.40
2010,02,20,10,09,9.50
2010,02,20,10,10,9.70
2010,02,20,10,11,9.70
2010,02,20,10,12,9.80
2010,02,20,10,13,9.90
2010,02,20,10,14,9.90
2010,02,20,10,15,10.00
2010,02,20,10,16,10.10
2010,02,20,10,17,10.10
2010,02,20,10,18,10.20
2010,02,20,10,19,10.20
2010,02,20,10,20,10.10
2010,02,20,10,21,10.00
2010,02,20,10,22,9.90
2010,02,20,10,23,9.90
2010,02,20,10,24,9.90
2010,02,20,10,25,9.90
2010,02,20,10,26,9.90
2010,02,20,10,27,9.90
2010,02,20,10,28,9.90
2010,02,20,10,29,9.90
2010,02,20,10,30,10.00
2010,02,20,10,31,10.10
2010,02,20,10,32,10.10
2010,02,20,10,33,10.20
2010,02,20,10,34,10.30
2010,02,20,10,35,10.40
2010,02,20,10,36,10.50
2010,02,20,10,37,10.60
2010,02,20,10,38,10.70
2010,02,20,10,39,10.80
2010,02,20,10,40,10.90
2010,02,20,10,41,11.10
2010,02,20,10,42,11.20
2010,02,20,10,43,11.30
2010,02,20,10,44,11.40
2010,02,20,10,45,11.40
2010,02,20,10,46,11.50
2010,02,20,10,47,11.40
2010,02,20,10,48,11.40
2010,02,20,10,49,11.60
2010,02,20,10,50,11.60
2010,02,20,10,51,11.60
2010,02,20,10,52,11.60
2010,02,20,10,53,11.60
2010,02,20,10,54,11.60
2010,02,20,10,55,11.70
2010,02,20,10,56,11.70
2010,02,20,10,57,11.70
2010,02,20,10,58,11.60
2010,02,20,10,59,11.60
2010,02,20,11,00,11.60
2010,02,20,11,01,11.60
2010,02,20,11,02,11.70
2010,02,20,11,03,11.70
2010,02,20,11,04,11.70
2010,02,20,11,05,11.80
2010,02,20,11,06,11.80
2010,02,20,11,07,11.80
2010,02,20,11,08,11.80
2010,02,20,11,09,11.90
2010,02,20,11,10,12.00
2010,02,20,11,11,12.00
2010,02,20,11,12,12.00
2010,02,20,11,13,12.10
2010,02,20,11,14,12.10
2010,02,20,11,15,12.10
2010,02,20,11,16,12.20
2010,02,20,11,17,12.20
2010,02,20,11,18,12.30
2010,02,20,11,19,12.30
2010,02,20,11,20,12.30
2010,02,20,11,21,12.40
2010,02,20,11,22,12.40
2010,02,20,11,23,12.40
2010,02,20,11,24,12.40
2010,02,20,11,25,12.40
2010,02,20,11,26,12.40
2010,02,20,11,27,12.50
2010,02,20,11,28,12.40
2010,02,20,11,29,12.40
2010,02,20,11,30,12.30
2010,02,20,11,31,12.30
2010,02,20,11,32,12.30
2010,02,20,11,33,12.30
2010,02,20,11,34,12.30
2010,02,20,11,35,12.30
2010,02,20,11,36,12.40
2010,02,20,11,37,12.50
2010,02,20,11,38,12.50
2010,02,20,11,39,12.50
2010,02,20,11,40,12.40
2010,02,20,11,41,12.30
2010,02,20,11,42,12.30
2010,02,20,11,43,12.20
2010,02,20,11,44,12.10
2010,02,20,11,45,12.10
2010,02,20,11,46,12.00
2010,02,20,11,47,12.00
2010,02,20,11,48,12.00
2010,02,20,11,49,12.00
2010,02,20,11,50,12.00
2010,02,20,11,51,12.10
2010,02,20,11,52,12.10
2010,02,20,11,53,12.10
2010,02,20,11,54,12.20
2010,02,20,11,55,12.30
2010,02,20,11,56,12.30
2010,02,20,11,57,12.30
2010,02,20,11,58,12.20
2010,02,20,11,59,12.20
2010,02,20,12,00,12.10
2010,02,20,12,01,12.00
2010,02,20,12,02,12.00
2010,02,20,12,03,12.10
2010,02,20,12,04,12.20
2010,02,20,12,05,12.20
2010,02,20,12,06,12.30
2010,02,20,12,07,12.30
2010,02,20,12,08,12.30
2010,02,20,12,09,12.30
2010,02,20,12,10,12.30
2010,02,20,12,11,12.30
2010,02,20,12,12,12.30
2010,02,20,12,13,12.30
2010,02,20,12,14,12.30
2010,02,20,12,15,12.30
2010,02,20,12,16,12.30
2010,02,20,12,17,12.30
2010,02,20,12,18,12.30
2010,02,20,12,19,12.30
2010,02,20,12,20,12.40
2010,02,20,12,21,12.40
2010,02,20,12,22,12.50
2010,02,20,12,23,12.50
2010,02,20,12,24,12.60
2010,02,20,12,25,12.60
2010,02,20,12,26,12.60
2010,02,20,12,27,12.50
2010,02,20,12,28,12.50
2010,02,20,12,29,12.50
2010,02,20,12,30,12.50
2010,02,20,12,31,12.50
2010,02,20,12,32,12.40
2010,02,20,12,33,12.40
2010,02,20,12,34,12.40
2010,02,20,12,35,12.40
2010,02,20,12,36,12.30
2010,02,20,12,37,12.30
2010,02,20,12,38,12.30
2010,02,20,12,39,12.30
2010,02,20,12,40,12.30
2010,02,20,12,41,12.30
2010,02,20,12,42,12.30
2010,02,20,12,43,12.30
2010,02,20,12,44,12.30
2010,02,20,12,45,12.30
2010,02,20,12,46,12.30
2010,02,20,12,47,12.40
2010,02,20,12,48,12.40
2010,02,20,12,49,12.50
2010,02,20,12,50,12.50
2010,02,20,12,51,12.50
2010,02,20,12,52,12.50
2010,02,20,12,53,12.50
2010,02,20,12,54,12.50
2010,02,20,12,55,12.50
2010,02,20,12,56,12.50
2010,02,20,12,57,12.40
2010,02,20,12,58,12.50
2010,02,20,12,59,12.50
2010,02,20,13,00,12.50
2010,02,20,13,01,12.50
2010,02,20,13,02,12.60
2010,02,20,13,03,12.60
2010,02,20,13,04,12.60
2010,02,20,13,05,12.60
2010,02,20,13,06,12.60
2010,02,20,13,07,12.70
2010,02,20,13,08,12.70
2010,02,20,13,09,12.70
2010,02,20,13,10,12.70
2010,02,20,13,11,12.70
2010,02,20,13,12,12.70
2010,02,20,13,13,12.70
2010,02,20,13,14,12.80
2010,02,20,13,15,12.80
2010,02,20,13,16,12.70
2010,02,20,13,17,12.70
2010,02,20,13,18,12.60
2010,02,20,13,19,12.50
2010,02,20,13,20,12.60
2010,02,20,13,21,12.60
2010,02,20,13,22,12.60
2010,02,20,13,23,12.60
2010,02,20,13,24,12.60
2010,02,20,13,25,12.60
2010,02,20,13,26,12.50
2010,02,20,13,27,12.60
2010,02,20,13,28,12.60
2010,02,20,13,29,12.60
2010,02,20,13,30,12.70
2010,02,20,13,31,12.70
2010,02,20,13,32,12.80
2010,02,20,13,33,12.80
2010,02,20,13,34,12.80
2010,02,20,13,35,12.80
2010,02,20,13,36,12.80
2010,02,20,13,37,12.70
2010,02,20,13,38,12.70
2010,02,20,13,39,12.70
2010,02,20,13,40,12.70
2010,02,20,13,41,12.70
2010,02,20,13,42,12.70
2010,02,20,13,43,12.80
2010,02,20,13,44,12.80
2010,02,20,13,45,12.80
2010,02,20,13,46,12.80
2010,02,20,13,47,12.90
2010,02,20,13,48,12.90
2010,02,20,13,49,12.90
2010,02,20,13,50,12.80
2010,02,20,13,51,12.70
2010,02,20,13,52,12.50
2010,02,20,13,53,12.30
2010,02,20,13,54,12.20
2010,02,20,13,55,12.10
2010,02,20,13,56,12.10
2010,02,20,13,57,12.10
2010,02,20,13,58,12.10
2010,02,20,13,59,12.10
2010,02,20,14,00,12.10
2010,02,20,14,01,12.20
2010,02,20,14,02,12.20
2010,02,20,14,03,12.20
2010,02,20,14,04,12.20
2010,02,20,14,05,12.00
2010,02,20,14,06,11.90
2010,02,20,14,07,11.80
2010,02,20,14,08,11.80
2010,02,20,14,09,11.80
2010,02,20,14,10,11.80
2010,02,20,14,11,11.80
2010,02,20,14,12,11.80
2010,02,20,14,13,11.80
2010,02,20,14,14,11.80
2010,02,20,14,15,11.80
2010,02,20,14,16,11.80
2010,02,20,14,17,11.80
2010,02,20,14,18,11.80
2010,02,20,14,19,11.80
2010,02,20,14,20,11.80
2010,02,20,14,21,11.70
2010,02,20,14,22,11.80
2010,02,20,14,23,11.80
2010,02,20,14,24,11.80
2010,02,20,14,25,11.80
2010,02,20,14,26,11.70
2010,02,20,14,27,11.70
2010,02,20,14,28,11.60
2010,02,20,14,29,11.60
2010,02,20,14,30,11.60
2010,02,20,14,31,11.60
2010,02,20,14,32,11.50
2010,02,20,14,33,11.40
2010,02,20,14,34,11.40
2010,02,20,14,35,11.40
2010,02,20,14,36,11.40
2010,02,20,14,37,11.40
2010,02,20,14,38,11.40
2010,02,20,14,39,11.40
2010,02,20,14,40,11.40
2010,02,20,14,41,11.40
2010,02,20,14,42,11.30
2010,02,20,14,43,11.30
2010,02,20,14,44,11.30
2010,02,20,14,45,11.30
2010,02,20,14,46,11.30
2010,02,20,14,47,11.30
2010,02,20,14,48,11.30
2010,02,20,14,49,11.20
2010,02,20,14,50,11.20
2010,02,20,14,51,11.20
2010,02,20,14,52,11.10
2010,02,20,14,53,11.10
2010,02,20,14,54,11.10
2010,02,20,14,55,11.10
2010,02,20,14,56,11.10
2010,02,20,14,57,11.10
2010,02,20,14,58,11.10
2010,02,20,14,59,11.10
2010,02,20,15,00,11.10
2010,02,20,15,01,11.10
2010,02,20,15,02,11.10
2010,02,20,15,03,11.10
2010,02,20,15,04,11.10
2010,02,20,15,05,11.10
2010,02,20,15,06,11.10
2010,02,20,15,07,11.10
2010,02,20,15,08,11.10
2010,02,20,15,09,11.10
2010,02,20,15,10,11.20
2010,02,20,15,11,11.20
2010,02,20,15,12,11.30
2010,02,20,15,13,11.30
2010,02,20,15,14,11.30
2010,02,20,15,15,11.30
2010,02,20,15,16,11.30
2010,02,20,15,17,11.30
2010,02,20,15,18,11.30
2010,02,20,15,19,11.30
2010,02,20,15,20,11.30
2010,02,20,15,21,11.30
2010,02,20,15,22,11.30
2010,02,20,15,23,11.30
2010,02,20,15,24,11.30
2010,02,20,15,25,11.30
2010,02,20,15,26,11.20
2010,02,20,15,27,11.20
2010,02,20,15,28,11.20
2010,02,20,15,29,11.20
2010,02,20,15,30,11.20
2010,02,20,15,31,11.20
2010,02,20,15,32,11.30
2010,02,20,15,33,11.30
2010,02,20,15,34,11.30
2010,02,20,15,35,11.30
2010,02,20,15,36,11.30
2010,02,20,15,37,11.30
2010,02,20,15,38,11.30
2010,02,20,15,39,11.30
2010,02,20,15,40,11.30
2010,02,20,15,41,11.30
2010,02,20,15,42,11.30
2010,02,20,15,43,11.30
2010,02,20,15,44,11.30
2010,02,20,15,45,11.30
2010,02,20,15,46,11.30
2010,02,20,15,47,11.30
2010,02,20,15,48,11.30
2010,02,20,15,49,11.30
2010,02,20,15,50,11.30
2010,02,20,15,51,11.30
2010,02,20,15,52,11.30
2010,02,20,15,53,11.30
2010,02,20,15,54,11.20
2010,02,20,15,55,11.20
2010,02,20,15,56,11.20
2010,02,20,15,57,11.20
2010,02,20,15,58,11.20
2010,02,20,15,59,11.20
2010,02,20,16,00,11.20
2010,02,20,16,01,11.20
2010,02,20,16,02,11.20
2010,02,20,16,03,11.10
2010,02,20,16,04,11.10
2010,02,20,16,05,11.10
2010,02,20,16,06,11.20
2010,02,20,16,07,11.20
2010,02,20,16,08,11.10
2010,02,20,16,09,11.10
2010,02,20,16,10,11.10
2010,02,20,16,11,11.10
2010,02,20,16,12,11.10
2010,02,20,16,13,11.10
2010,02,20,16,14,11.10
2010,02,20,16,15,11.10
2010,02,20,16,16,11.10
2010,02,20,16,17,11.10
2010,02,20,16,18,11.10
2010,02,20,16,19,11.10
2010,02,20,16,20,11.10
2010,02,20,16,21,11.10
2010,02,20,16,22,11.10
2010,02,20,16,23,11.10
2010,02,20,16,24,11.10
2010,02,20,16,25,11.10
2010,02,20,16,26,11.00
2010,02,20,16,27,10.90
2010,02,20,16,28,10.90
2010,02,20,16,29,10.90
2010,02,20,16,30,10.90
2010,02,20,16,31,10.90
2010,02,20,16,32,10.90
2010,02,20,16,33,10.90
2010,02,20,16,34,10.90
2010,02,20,16,35,10.90
2010,02,20,16,36,10.90
2010,02,20,16,37,10.90
2010,02,20,16,38,10.90
2010,02,20,16,39,10.90
2010,02,20,16,40,10.90
2010,02,20,16,41,10.90
2010,02,20,16,42,10.90
2010,02,20,16,43,10.90
2010,02,20,16,44,10.90
2010,02,20,16,45,10.90
2010,02,20,16,46,10.80
2010,02,20,16,47,10.80
2010,02,20,16,48,10.70
2010,02,20,16,49,10.70
2010,02,20,16,50,10.70
2010,02,20,16,51,10.70
2010,02,20,16,52,10.70
2010,02,20,16,53,10.60
2010,02,20,16,54,10.60
2010,02,20,16,55,10.60
2010,02,20,16,56,10.60
2010,02,20,16,57,10.60
2010,02,20,16,58,10.60
2010,02,20,16,59,10.60
2010,02,20,17,00,10.60
2010,02,20,17,01,10.60
2010,02,20,17,02,10.60
2010,02,20,17,03,10.50
2010,02,20,17,04,10.40
2010,02,20,17,05,10.40
2010,02,20,17,06,10.40
2010,02,20,17,07,10.40
2010,02,20,17,08,10.40
2010,02,20,17,09,10.40
2010,02,20,17,10,10.40
2010,02,20,17,11,10.40
2010,02,20,17,12,10.40
2010,02,20,17,13,10.40
2010,02,20,17,14,10.40
2010,02,20,17,15,10.30
2010,02,20,17,16,10.30
2010,02,20,17,17,10.30
2010,02,20,17,18,10.30
2010,02,20,17,19,10.30
2010,02,20,17,20,10.30
2010,02,20,17,21,10.30
2010,02,20,17,22,10.20
2010,02,20,17,23,10.20
2010,02,20,17,24,10.20
2010,02,20,17,25,10.20
2010,02,20,17,26,10.20
2010,02,20,17,27,10.10
2010,02,20,17,28,10.10
2010,02,20,17,29,10.10
2010,02,20,17,30,10.10
2010,02,20,17,31,10.10
2010,02,20,17,32,10.10
2010,02,20,17,33,10.00
2010,02,20,17,34,9.90
2010,02,20,17,35,9.90
2010,02,20,17,36,9.90
2010,02,20,17,37,9.80
2010,02,20,17,38,9.80
2010,02,20,17,39,9.70
2010,02,20,17,40,9.70
2010,02,20,17,41,9.60
2010,02,20,17,42,9.50
2010,02,20,17,43,9.50
2010,02,20,17,44,9.40
2010,02,20,17,45,9.30
2010,02,20,17,46,9.20
2010,02,20,17,47,9.20